Weather History for FENTRESS NALF, VA

Change the Weather History Date:

Thursday, February 13, 2014

  Actual Average (KORF) Record (KORF)
Temperature  
Mean Temperature 46 °F 42 °F  
Max Temperature 53 °F 51 °F 78 °F (1880)
Min Temperature 39 °F 34 °F 9 °F (1899)
Degree Days  
Heating Degree Days 19 23  
Month to date heating degree days 306  
Since 1 July heating degree days 2248  
Cooling Degree Days 0 0  
Month to date cooling degree days 0  
Year to date cooling degree days 0  
Moisture  
Dew Point 41 °F    
Average Humidity 95    
Maximum Humidity 100    
Minimum Humidity 80    
Precipitation  
Precipitation 0.98 in 0.11 in 1.56 in (1945)
Month to date precipitation 1.41  
Year to date precipitation 4.81  
Snow  
Snow 0.00 in 0.10 in 4.50 in (1899)
Month to date snowfall 1.1  
Since 1 July snowfall 4.7  
Snow Depth -    
Sea Level Pressure  
Sea Level Pressure 29.43 in    
Wind  
Wind Speed 10 mph (NNW)    
Max Wind Speed 17 mph    
Max Gust Speed 24 mph    
Visibility 5 miles    
Events Rain    
T = Trace of Precipitation, MM = Missing Value Source: NWS Daily Summary

Daily Weather History Graph

Daily Weather History Graph

Search for Another Location

Airport:

Trip Planner

Search our weather history database for the weather conditions in past years. The results will help you decide how hot, cold, wet, or windy it might be!

Date:

Astronomy

Feb. 13, 2014 Rise Set
Actual Time 6:54 AM EST 5:43 PM EST
Civil Twilight 6:28 AM EST 6:09 PM EST
Nautical Twilight 5:58 AM EST 6:39 PM EST
Astronomical Twilight 5:27 AM EST 7:10 PM EST
Moon 4:49 PM EST (2/13) 5:46 AM EST (2/13)
Length of Visible Light 11h 41m
Length of Day
10h 48m
Waxing Gibbous, 98% of the Moon is Illuminated
Feb 13
Waxing Gibbous
Feb 14
Full
Feb 22
Last Quarter
Mar 1
New
Mar 8
First Quarter

Hourly Weather History & Observations

Time (EST) Temp. Windchill Dew Point Humidity Pressure Visibility Wind Dir Wind Speed Gust Speed Precip Events Conditions
12:56 AM 51.1 °F - 45.0 °F 80% 29.78 in 4.0 mi ENE 15.0 mph 23.0 mph 0.11 in Rain Rain
1:56 AM 52.0 °F - - N/A% 29.71 in 3.0 mi NE 13.8 mph 21.9 mph 0.14 in Rain Heavy Rain
2:03 AM 52.0 °F - - N/A% 29.69 in 2.5 mi ENE 13.8 mph - 0.04 in Rain Heavy Rain
2:20 AM 52.0 °F - - N/A% 29.66 in 2.5 mi NE 13.8 mph 24.2 mph 0.16 in Rain Heavy Rain
2:45 AM 52.0 °F - - N/A% 29.62 in 2.5 mi NE 12.7 mph - 0.33 in Rain Rain
2:47 AM 52.0 °F - - N/A% 29.61 in 3.0 mi NE 13.8 mph - 0.34 in Rain Heavy Rain
2:56 AM 53.1 °F - - N/A% 29.60 in 4.0 mi NE 16.1 mph - 0.36 in Rain Rain
3:06 AM 53.1 °F - - N/A% 29.57 in 2.5 mi NNE 17.3 mph 24.2 mph 0.11 in Rain Heavy Rain
3:09 AM 52.0 °F - - N/A% 29.58 in 3.0 mi NE 13.8 mph - 0.12 in Rain Rain
3:28 AM 52.0 °F - - N/A% 29.58 in 4.0 mi Variable 5.8 mph 23.0 mph 0.18 in Rain Heavy Rain
3:35 AM 52.0 °F - - N/A% 29.57 in 3.0 mi NNE 4.6 mph - 0.23 in Rain Heavy Rain
3:56 AM 51.1 °F - - N/A% 29.55 in 8.0 mi Variable 4.6 mph - 0.26 in Rain Light Rain
4:11 AM 51.1 °F - - N/A% 29.54 in 10.0 mi North 8.1 mph 19.6 mph 0.01 in Rain Light Rain
4:20 AM 51.1 °F - - N/A% 29.53 in 10.0 mi Calm Calm - 0.01 in Rain Light Rain
4:56 AM 50.0 °F - - N/A% 29.52 in 6.0 mi NNW 5.8 mph - 0.04 in Rain Light Rain
5:04 AM 50.0 °F - - N/A% 29.51 in 6.0 mi Variable 5.8 mph - 0.01 in Rain Light Rain
5:56 AM 48.0 °F - - N/A% 29.52 in 8.0 mi WNW 5.8 mph - 0.03 in   Overcast
6:56 AM 46.9 °F - - N/A% 29.51 in 6.0 mi WNW 8.1 mph - N/A   Haze
7:30 AM 45.0 °F 41.8 °F - N/A% 29.50 in 1.8 mi NNW 5.8 mph - 0.00 in Rain Light Rain
7:56 AM 45.0 °F 40.6 °F - N/A% 29.51 in 1.0 mi NW 8.1 mph - 0.00 in   Overcast
8:56 AM 45.0 °F 40.6 °F - N/A% 29.48 in 1.8 mi NNW 8.1 mph - N/A   Overcast
9:56 AM 45.0 °F 39.7 °F - N/A% 29.46 in 1.5 mi North 10.4 mph 20.7 mph N/A   Overcast
10:16 AM 45.0 °F 40.1 °F - N/A% 29.44 in 2.5 mi NNW 9.2 mph - N/A   Overcast
10:35 AM 45.0 °F 38.5 °F - N/A% 29.43 in 3.0 mi North 13.8 mph - N/A   Overcast
10:51 AM 44.6 °F 38.8 °F - N/A% 29.43 in 2.5 mi NNW 11.5 mph - N/A   Overcast
10:56 AM 45.0 °F 39.7 °F - N/A% 29.44 in 2.5 mi NNW 10.4 mph - N/A   Overcast
11:08 AM 45.0 °F 40.6 °F - N/A% 29.43 in 3.0 mi NNW 8.1 mph - N/A   Overcast
11:22 AM 45.0 °F 38.9 °F - N/A% 29.41 in 2.5 mi North 12.7 mph - N/A   Overcast
11:56 AM 46.0 °F 40.6 °F - N/A% 29.39 in 3.0 mi North 11.5 mph 19.6 mph N/A   Overcast
12:11 PM 46.0 °F 40.2 °F - N/A% 29.38 in 2.5 mi NNW 12.7 mph - N/A   Overcast
12:16 PM 46.0 °F 39.9 °F - N/A% 29.37 in 3.0 mi North 13.8 mph - N/A   Overcast
12:33 PM 46.0 °F 39.3 °F - N/A% 29.35 in 2.5 mi North 16.1 mph - N/A   Overcast
12:52 PM 44.6 °F 39.7 °F - N/A% 29.33 in 3.0 mi NNW 9.2 mph - N/A   Overcast
12:56 PM 45.0 °F 40.1 °F - N/A% 29.34 in 3.0 mi NNW 9.2 mph - N/A   Overcast
1:56 PM 45.0 °F 41.2 °F - N/A% 29.31 in 4.0 mi NNW 6.9 mph - N/A   Haze
2:34 PM 45.0 °F 42.6 °F - N/A% 29.31 in 2.5 mi Variable 4.6 mph - 0.01 in Rain Light Rain
2:43 PM 46.0 °F 43.9 °F - N/A% 29.30 in 5.0 mi NNW 4.6 mph - 0.01 in   Haze
2:56 PM 46.0 °F 43.9 °F - N/A% 29.29 in 8.0 mi North 4.6 mph - 0.01 in   Overcast
3:34 PM 45.0 °F 43.5 °F - N/A% 29.26 in 2.5 mi NNW 3.5 mph - 0.00 in Rain Light Rain
3:56 PM 45.0 °F 43.5 °F - N/A% 29.29 in 2.5 mi Variable 3.5 mph - 0.00 in   Overcast
4:06 PM 45.0 °F 43.5 °F - N/A% 29.28 in 1.2 mi WSW 3.5 mph - 0.00 in Rain Light Rain
4:15 PM 45.0 °F 42.6 °F - N/A% 29.28 in 1.2 mi SW 4.6 mph - 0.01 in Rain Light Rain
4:35 PM 45.0 °F 42.6 °F - N/A% 29.28 in 2.0 mi Variable 4.6 mph - 0.01 in Rain Light Rain
4:50 PM 44.6 °F 42.2 °F 44.6 °F 100% 29.29 in 1.8 mi Variable 4.6 mph - 0.02 in Rain Light Rain
4:56 PM 44.1 °F 39.5 °F 44.1 °F 100% 29.30 in 1.8 mi WSW 8.1 mph - 0.03 in Rain Light Rain
4:59 PM 44.1 °F 38.6 °F 44.1 °F 100% 29.30 in 2.5 mi WSW 10.4 mph 17.3 mph 0.00 in Rain Light Rain
5:07 PM 43.0 °F 39.5 °F 43.0 °F 100% 29.30 in 4.0 mi Variable 5.8 mph 18.4 mph 0.00 in Rain Light Rain
5:16 PM 43.0 °F 38.8 °F 43.0 °F 100% 29.30 in 8.0 mi Variable 6.9 mph - 0.00 in Rain Light Rain
5:26 PM 43.0 °F 38.8 °F 43.0 °F 100% 29.30 in 5.0 mi Variable 6.9 mph - 0.00 in Rain Light Rain
5:43 PM 42.1 °F 37.1 °F 42.1 °F 100% 29.30 in 10.0 mi West 8.1 mph - 0.00 in Rain Light Rain
5:56 PM 42.1 °F 37.1 °F 42.1 °F 100% 29.31 in 10.0 mi West 8.1 mph 17.3 mph 0.00 in Rain Light Rain
6:05 PM 41.0 °F 35.8 °F 41.0 °F 100% 29.30 in 9.0 mi West 8.1 mph 16.1 mph 0.00 in   Overcast
6:56 PM 39.9 °F 33.4 °F 39.0 °F 97% 29.33 in 10.0 mi West 10.4 mph 19.6 mph 0.00 in   Overcast
7:56 PM 39.0 °F 33.4 °F 37.0 °F 93% 29.37 in 10.0 mi WNW 8.1 mph 17.3 mph N/A   Overcast
8:56 PM 39.0 °F 34.8 °F 37.0 °F 93% 29.39 in 10.0 mi Variable 5.8 mph - N/A   Overcast
9:56 PM 39.0 °F 32.3 °F 37.0 °F 93% 29.42 in 10.0 mi West 10.4 mph 19.6 mph N/A   Overcast
10:56 PM 39.9 °F - 37.0 °F 89% 29.46 in 10.0 mi North - - N/A   Overcast
11:42 PM 41.0 °F 36.4 °F 37.9 °F 89% 29.47 in 10.0 mi Variable 6.9 mph - 0.00 in   Overcast
11:56 PM 41.0 °F 36.4 °F 37.9 °F 89% 29.48 in 10.0 mi Variable 6.9 mph - 0.00 in   Overcast